[[{"header":{"parameterUnit":"m.s-1","parameterCategory":1,"la1":30.2991,"la2":30.254,"lo1":-89.0895,"lo2":-89.0444,"dy":0.0017,"dx":0.0017,"nx":28,"ny":28,"refTime":"2023-08-18T03:00:00:Z","depth":0,"parameterNumber":2,"parameterNumberName":"U-component_of_WINDS"},"data":[0,0,0,0,0,0,0,0,0,0,0,0,0,0,0,0,0,0,0,0,0,0,0,0,0,0,0,0,0,0,0,0,0,0,0,0,0,0,0,0,0,0,0,0,0,0,0,0,0,0,0,0,0,0,0,0,0,0,4.8961,4.8963,0,4.9157,4.9159,4.9162,4.9131,4.9127,4.9124,4.9121,4.9321,4.9329,4.9338,0,0,0,0,0,0,0,0,0,0,0,0,0,4.8558,4.8565,4.8961,4.8964,4.8966,4.9157,4.916,4.9162,4.9131,4.9127,4.9123,4.9119,4.9318,4.9328,4.9339,0,0,0,0,0,0,0,0,0,0,0,0,0,4.8741,4.8568,4.8961,4.8973,4.8977,4.9156,4.916,4.9163,4.9132,4.9127,4.9122,4.9117,4.9315,4.9327,4.934,4.9519,0,0,4.9379,4.9384,0,0,0,0,0,0,0,0,4.8731,4.8756,4.8969,4.8973,4.8977,4.9114,4.9091,4.9282,4.9133,4.9073,4.9121,4.9115,4.9256,4.9274,4.9321,4.9529,4.9537,4.938,4.9388,4.9393,4.9397,0,0,0,0,0,0,0,4.8718,4.8748,4.9039,4.8972,4.8977,4.8969,4.8989,4.9127,4.9191,4.9078,4.9076,4.91,4.9257,4.9309,4.9326,4.954,4.938,4.9391,4.9399,4.9404,4.9902,4.9907,0,0,0,0,0,0,4.8702,4.8737,4.9032,4.9044,4.8839,4.898,4.9003,4.9075,4.9189,4.9201,4.9104,4.9098,4.929,4.9311,4.9333,4.9548,4.9393,4.9405,4.9412,4.9896,4.9903,4.9909,0,0,0,0,0,0,4.8694,4.8729,4.9024,4.8891,4.8928,4.8992,4.9074,4.9082,4.9133,4.9209,4.922,4.9145,4.9287,4.9315,4.9473,4.9555,4.9411,4.9422,4.9889,4.9898,4.9906,4.9981,0,0,0,0,0,0,4.8682,4.8726,4.8795,4.8892,4.8935,4.9162,4.9079,4.9089,4.9155,4.9149,4.925,4.9262,4.9285,4.9454,4.9485,4.957,4.9432,4.9882,4.9893,4.9903,4.9972,4.9991,5.0008,0,0,0,0,0,4.8668,4.8809,4.8799,4.8835,4.9023,4.9166,4.9191,4.9214,4.9162,4.9232,4.928,4.9259,4.9541,4.947,4.9505,4.9595,4.9877,4.989,4.9902,4.9964,4.9987,5.0007,0,0,0,0,0,0,4.872,4.8822,4.8812,4.8989,4.9069,4.9161,4.925,4.9239,4.9336,4.9326,4.9351,4.9374,4.9533,4.958,4.9499,4.9773,4.9702,4.9722,4.9736,4.9759,4.9777,4.9762,4.9443,0,0,0,0,0,4.8753,4.8861,4.8944,4.9092,4.9133,4.9185,4.9248,4.9259,4.9343,4.9377,4.9437,4.9519,4.9625,4.9695,4.9798,4.9979,4.9999,5.0057,5.0075,5.009,5.0107,5.0203,5.0229,4.995,4.995,4.995,0,0,4.882,4.8889,4.8956,4.9105,4.9168,4.9279,4.9213,4.9334,4.9416,4.9395,4.9547,4.9594,4.9687,4.9856,4.9934,4.99,5.0188,5.0106,5.0117,5.0126,5.0219,5.0245,5.0268,4.9959,4.9957,4.9956,0,0,4.8999,4.9064,4.9193,4.9257,4.9354,4.9387,4.9418,4.9512,4.9541,4.9694,4.968,4.9778,4.9962,5.0028,5.0086,5.0289,5.0272,5.0322,5.0416,5.0509,5.0531,5.0551,5.062,5.0645,5.0339,5.0339,5.0339,0,4.9071,4.9238,4.926,4.9382,4.9447,4.9433,4.9563,4.9625,4.975,4.9795,4.9755,4.9984,5.0047,5.023,5.0279,5.0327,5.0362,5.031,5.0526,5.0546,5.0565,5.0631,5.0658,5.0344,5.0343,5.0343,5.0342,0,4.932,4.9436,4.9528,4.9649,4.9724,4.9849,4.989,4.9964,4.9968,5.0005,5.0159,5.0233,5.0349,5.0394,5.04,5.0578,5.0553,5.052,5.0449,5.0596,5.0659,5.0685,5.0351,5.0349,5.0348,5.0347,0,0,4.9538,4.9668,4.9701,4.9755,4.986,4.9949,5.0073,5.0187,5.0248,5.0335,5.0438,5.0593,5.0563,5.0628,5.0642,5.0724,5.0876,5.0681,5.0683,5.0712,5.1074,5.1096,5.1125,5.0867,5.0872,5.0876,5.1065,0,4.9725,4.9944,4.9967,5.0162,5.0268,5.0255,5.0363,5.0439,5.0476,5.0571,5.0612,5.0721,5.0674,5.0713,5.0794,5.0841,5.0949,5.0828,5.0961,5.0966,5.0936,5.1159,5.1184,5.1358,5.109,5.1094,5.1097,0,4.9973,5.0065,5.0271,5.0359,5.0404,5.05,5.0605,5.0696,5.0781,5.0802,5.0875,5.0877,5.1003,5.0928,5.1101,5.1018,5.1074,5.1105,5.1113,5.1124,5.1039,5.1174,5.1415,5.144,5.1137,5.1134,5.1131,0,5.0108,5.0284,5.0429,5.0476,5.0583,5.065,5.0698,5.0778,5.0843,5.0935,5.0977,5.1083,5.114,5.1221,5.125,5.1193,5.1421,5.1349,5.1441,5.144,5.1488,5.1484,5.1739,5.1528,5.1528,5.1527,5.1527,0,5.0313,5.0439,5.0491,5.058,5.0719,5.0744,5.0882,5.0926,5.0997,5.1093,5.109,5.118,5.1215,5.1311,5.1335,5.1474,5.15,5.152,5.1524,5.1519,5.1516,5.1554,5.1542,5.1534,5.1533,5.1532,5.153,0,5.0487,5.0527,5.0684,5.0772,5.0797,5.0896,5.0971,5.1056,5.1092,5.1214,5.1244,5.13,5.1412,5.145,5.1587,5.1603,5.1763,5.1759,5.1734,5.1734,5.1823,5.1813,5.2109,5.2148,5.1914,5.1916,5.1918,0,5.0615,5.0711,5.0808,5.0872,5.0922,5.1026,5.1093,5.1121,5.119,5.1293,5.1365,5.1477,5.1567,5.1747,5.18,5.1904,5.19,5.1997,5.1915,5.1906,5.1898,5.1891,5.1899,5.2011,5.2013,5.2015,5.2017,0,5.0836,5.085,5.0946,5.105,5.1129,5.1212,5.1291,5.1344,5.1384,5.1462,5.1576,5.1646,5.1784,5.1894,5.2,5.2048,5.2039,5.2042,5.2068,5.2063,5.2043,5.2052,5.1773,5.2035,5.2033,5.2032,5.2031,5.203,5.0989,5.1072,5.1153,5.126,5.1323,5.1397,5.148,5.1526,5.1622,5.1736,5.1747,5.187,5.195,5.2091,5.2144,5.224,5.2213,5.2251,5.2261,5.2269,5.2274,5.203,5.226,5.2259,5.2259,5.2258,5.2258,0,5.1207,5.1258,5.1356,5.1467,5.1551,5.1535,5.1622,5.1692,5.18,5.1876,5.1964,5.2094,5.22,5.2261,5.2367,5.2431,5.243,5.2458,5.2452,5.2463,5.2294,5.226,5.2458,5.2458,5.2457,5.2457,5.2457,5.2457,5.1331,5.147,5.1494,5.1664,5.1714,5.1834,5.1885,5.1952,5.2012,5.2158,5.2246,5.2284,5.2353,5.2464,5.256,5.2575,5.2612,5.2643,5.2655,5.2496,5.2475,5.2456,5.2423,5.2652,5.2652,5.2816,5.2817,5.2818]},{"header":{"parameterUnit":"m.s-1","parameterCategory":1,"la1":30.2991,"la2":30.254,"lo1":-89.0895,"lo2":-89.0444,"dy":0.0017,"dx":0.0017,"nx":28,"ny":28,"refTime":"2023-08-18T03:00:00:Z","depth":0,"parameterNumber":3,"parameterNumberName":"V-component_of_WINDS"},"data":[0,0,0,0,0,0,0,0,0,0,0,0,0,0,0,0,0,0,0,0,0,0,0,0,0,0,0,0,0,0,0,0,0,0,0,0,0,0,0,0,0,0,0,0,0,0,0,0,0,0,0,0,0,0,0,0,0,0,0.8329,0.833,0,0.8384,0.8385,0.8385,0.8383,0.8382,0.8381,0.838,0.8436,0.8439,0.8441,0,0,0,0,0,0,0,0,0,0,0,0,0,0.8221,0.8223,0.8329,0.833,0.8331,0.8384,0.8385,0.8385,0.8383,0.8382,0.8381,0.838,0.8436,0.8438,0.8441,0,0,0,0,0,0,0,0,0,0,0,0,0,0.8271,0.8224,0.8329,0.8336,0.8337,0.8384,0.8385,0.8386,0.8383,0.8382,0.8381,0.838,0.8435,0.8438,0.8441,0.8485,0,0,0.8451,0.8453,0,0,0,0,0,0,0,0,0.8268,0.8275,0.8334,0.8335,0.8337,0.8375,0.8367,0.8419,0.8383,0.8366,0.838,0.8379,0.8417,0.8422,0.8435,0.8488,0.849,0.8452,0.8454,0.8455,0.8456,0,0,0,0,0,0,0,0.8265,0.8273,0.8351,0.8335,0.8337,0.8336,0.8341,0.8377,0.8397,0.8367,0.8367,0.8373,0.8417,0.8431,0.8436,0.8491,0.8452,0.8455,0.8457,0.8458,0.8581,0.8582,0,0,0,0,0,0,0.826,0.827,0.8349,0.8352,0.8299,0.8338,0.8345,0.8364,0.8397,0.8401,0.8374,0.8373,0.8426,0.8432,0.8438,0.8491,0.8455,0.8458,0.846,0.858,0.8581,0.8583,0,0,0,0,0,0,0.8258,0.8267,0.8347,0.8311,0.8321,0.8342,0.8363,0.8366,0.838,0.8402,0.8406,0.8385,0.8426,0.8433,0.8473,0.8493,0.846,0.8463,0.8578,0.858,0.8582,0.8597,0,0,0,0,0,0,0.8255,0.8267,0.8284,0.8312,0.8323,0.8382,0.8364,0.8368,0.8385,0.8384,0.8413,0.8417,0.8425,0.8468,0.8476,0.8497,0.8465,0.8577,0.8579,0.8582,0.8595,0.8599,0.8603,0,0,0,0,0,0.8251,0.8286,0.8285,0.8294,0.8345,0.8383,0.8389,0.8399,0.8387,0.8404,0.8418,0.8416,0.8489,0.8472,0.8481,0.8503,0.8576,0.8579,0.8581,0.8593,0.8598,0.8603,0,0,0,0,0,0,0.826,0.829,0.8289,0.8334,0.8356,0.8382,0.8405,0.8404,0.843,0.8428,0.8438,0.8444,0.8484,0.8497,0.8478,0.8546,0.8531,0.8536,0.8536,0.8542,0.8545,0.8542,0.8468,0,0,0,0,0,0.8267,0.8296,0.832,0.8357,0.8368,0.8384,0.8401,0.8406,0.8429,0.8439,0.8456,0.8478,0.8506,0.8524,0.8551,0.8596,0.8602,0.8615,0.8619,0.8623,0.8627,0.8651,0.8657,0.8592,0.8592,0.8592,0,0,0.8283,0.8302,0.832,0.8359,0.8377,0.8406,0.8392,0.8424,0.8445,0.8443,0.8482,0.8495,0.8521,0.8563,0.8583,0.8576,0.8646,0.8626,0.8629,0.8631,0.8654,0.8661,0.8666,0.8594,0.8594,0.8594,0,0,0.8325,0.8343,0.8376,0.8393,0.842,0.843,0.8438,0.8465,0.8473,0.8512,0.8511,0.8536,0.8585,0.8603,0.8618,0.8666,0.8664,0.8674,0.8695,0.8719,0.8724,0.8728,0.8745,0.8751,0.8678,0.8678,0.8678,0,0.8341,0.8384,0.8393,0.8424,0.8441,0.844,0.8473,0.849,0.8524,0.8536,0.8527,0.8587,0.8604,0.865,0.8662,0.8674,0.8683,0.8671,0.8722,0.8727,0.8731,0.8747,0.8754,0.8679,0.8679,0.8679,0.8679,0,0.8402,0.8432,0.8455,0.8488,0.8508,0.854,0.8552,0.8571,0.8574,0.8585,0.8624,0.8644,0.8675,0.8686,0.8689,0.8732,0.8727,0.872,0.8705,0.8738,0.8754,0.876,0.8681,0.868,0.868,0.868,0,0,0.8453,0.8489,0.8498,0.8512,0.8541,0.8564,0.8595,0.8625,0.8641,0.8664,0.869,0.873,0.8723,0.8741,0.8746,0.8766,0.8802,0.8757,0.8757,0.8764,0.885,0.8856,0.8863,0.88,0.8802,0.8803,0.8848,0,0.8499,0.8555,0.8563,0.8612,0.864,0.8638,0.8666,0.8686,0.8696,0.8721,0.8732,0.876,0.875,0.876,0.878,0.8793,0.8819,0.879,0.8825,0.8826,0.8819,0.8871,0.8877,0.8919,0.8854,0.8855,0.8856,0,0.856,0.8585,0.8637,0.8661,0.8672,0.8697,0.8724,0.8748,0.877,0.8776,0.8795,0.8797,0.8829,0.8811,0.8854,0.8834,0.8849,0.8857,0.8859,0.8863,0.8843,0.8876,0.8932,0.8939,0.8865,0.8865,0.8864,0,0.8592,0.8638,0.8675,0.8687,0.8716,0.8733,0.8746,0.8767,0.8784,0.8808,0.8819,0.8846,0.8861,0.8881,0.889,0.8877,0.8933,0.8916,0.8939,0.8938,0.8951,0.895,0.9011,0.896,0.896,0.896,0.8959,0,0.8643,0.8675,0.869,0.8713,0.8748,0.8756,0.879,0.8802,0.8821,0.8845,0.8846,0.8869,0.8879,0.8903,0.891,0.8945,0.8951,0.8957,0.8959,0.8957,0.8957,0.8967,0.8965,0.8961,0.8961,0.8961,0.896,0,0.8685,0.8697,0.8737,0.876,0.8767,0.8792,0.8812,0.8833,0.8843,0.8874,0.8882,0.8897,0.8926,0.8936,0.8971,0.8976,0.9016,0.9015,0.9008,0.9009,0.9031,0.9028,0.91,0.911,0.9052,0.9053,0.9053,0,0.8717,0.8741,0.8767,0.8784,0.8797,0.8824,0.8841,0.8849,0.8867,0.8893,0.8912,0.894,0.8963,0.9008,0.9023,0.9049,0.9049,0.9072,0.9053,0.905,0.9049,0.9047,0.905,0.9076,0.9076,0.9077,0.9077,0,0.8772,0.8776,0.8801,0.8828,0.8848,0.8869,0.889,0.8903,0.8915,0.8934,0.8963,0.8981,0.9016,0.9044,0.9071,0.9083,0.9082,0.9083,0.9089,0.9089,0.9084,0.9087,0.9018,0.9081,0.9081,0.9081,0.908,0.908,0.881,0.8831,0.8853,0.888,0.8896,0.8916,0.8937,0.8949,0.8973,0.9003,0.9006,0.9037,0.9057,0.9093,0.9106,0.913,0.9124,0.9134,0.9136,0.9138,0.914,0.9079,0.9135,0.9135,0.9135,0.9135,0.9135,0,0.8865,0.8879,0.8904,0.8932,0.8954,0.895,0.8972,0.899,0.9018,0.9037,0.9059,0.9092,0.9119,0.9134,0.9161,0.9177,0.9177,0.9184,0.9183,0.9186,0.9144,0.9136,0.9183,0.9183,0.9183,0.9183,0.9183,0.9183,0.8896,0.8932,0.8938,0.8982,0.8995,0.9025,0.9038,0.9056,0.9071,0.9108,0.913,0.914,0.9157,0.9185,0.9209,0.9212,0.9222,0.923,0.9233,0.9194,0.9189,0.9184,0.9176,0.9232,0.9232,0.9272,0.9273,0.9273]}]]